TITAN 3C TRANSTAGE R/B, 3292

Orbit data source: Space-Track

TITAN 3C TRANSTAGE R/B, 3292 is space debris in GEO originally from a launch on Thu, 13 Jun 1968 UTC launched from the Air Force Eastern Test Range (AFETR). Debris objects in space refer to the collection of defunct objects orbiting the Earth. Examples of debris include non-operational satellites, rocket bodies, and fragments generated from explosions, collisions, or faulty payload assembly.

Not visible in the next 10 days
Identifier
3292, 1968-050J
Orbit
GEO
Country
Flag of USUS
Related business
Manufacturer
Martin Marietta
Mission
Spacecraft
Bus & Motor
TRANSTAGE, Unknown motor
Mass
~1,950 kg wet, ~1,950 kg dry
Launch date (UTC)
1968-06-13 (58 years ago)
Launch vehicle
Unknown
Launch site
Air Force Eastern Test Range (AFETR)
Object type
Payload
Rocket body
Debris
Shape & HBR
Unknown
Radar Cross Section
Large (>1 m²)

Expand to show TLE details & history
Last TLE update: 4 hours ago

TLE from 4 hours ago
0 TITAN 3C TRANSTAGE R/B
1  3292U 68050J   26034.43770390 -.00000200  00000-0  00000+0 0  9995
2  3292   7.3468  54.0660 0174292   3.3565 341.4735  1.05594464 45086
Epoch: 2026-02-03T10:30Z
TLE epoch observation values (Epoch: 2026-02-03T10:30:17.616Z)
Latitude
-2.01666°
Longitude
107.2065°
Altitude
33,688.783 km
Speed
3.18 km/s
True Right ascension
02h 33m 35s
True Declination
-2° 00' 52"
Sunlit
Object was in daylight at epoch
Visualization orbit readout
Latitude
Unknown
Longitude
Unknown
Altitude
Unknown
Speed
Unknown
Apparent Right ascension
Unknown
Apparent Declination
Unknown
Sunlit
N/A
Visualization observer readout
Local Sidereal Time
16:49:58
Azimuth
Unknown
Elevation
Unknown
Doppler factor
Unknown
Orbital elements
Apogee altitude
35,068.579 km
Perigee altitude
33,648.562 km
Semi-major axis
40,736.707 km
Eccentricity
0.01743
Inclination
7.3468°
RAAN
54.066°
Arg. of periapsis
3.3565°
True anomaly
340.82553°
Mean anomaly
341.4735°
Eccentric anomaly
341.15087°
Mean motion
0.26398 °/min
Orbital period
1,363.76 mins
BSTAR
0
Loading maneuver chart data...
Computing Atmospheric mass density...
Loading historical data...
Loading historical data...
Loading historical data...
Loading historical data...
Loading historical data...
Loading historical data...
Loading historical data...

Documentation

Showing up to 5 results
|